• In Russia
  • List of Countries
  • For 7 days
  • Water Temperature
  • Satellite Maps
  • Weather Map
  • Weather Widgets
  • user-avatar
    Login

    Hourly Weather Tibissa

    Today, 24 March, Sunday

    Time Temperature Precipitation Wind Pressure Humidity
    00:00 +8°C° 0 mm 1 mps 688 mmHg 95%
    01:00 +7°C° 0 mm 1 mps 688 mmHg 96%
    02:00 +7°C° 0 mm 1 mps 688 mmHg 96%
    03:00 +7°C° 0 mm 1 mps 687 mmHg 96%
    04:00 +6°C° 0 mm 1 mps 687 mmHg 96%
    05:00 +6°C° 0 mm 1 mps 687 mmHg 96%
    06:00 +6°C° 0 mm 1 mps 688 mmHg 95%
    07:00 +7°C° 0 mm 1 mps 688 mmHg 96%
    08:00 +9°C° 0 mm 1 mps 688 mmHg 85%
    09:00 +10°C° 0 mm 1 mps 689 mmHg 73%
    10:00 +12°C° 0 mm 1 mps 689 mmHg 62%
    11:00 +13°C° 0 mm 1 mps 689 mmHg 56%
    12:00 +14°C° 0 mm 1 mps 689 mmHg 49%
    13:00 +15°C° 0 mm 1 mps 690 mmHg 42%
    14:00 +15°C° 0 mm 1 mps 689 mmHg 40%
    15:00 +16°C° 0 mm 1 mps 689 mmHg 37%
    16:00 +16°C° 0 mm 1 mps 689 mmHg 35%
    17:00 +16°C° 0 mm 1 mps 689 mmHg 38%
    18:00 +15°C° 0 mm 1 mps 688 mmHg 42%
    19:00 +15°C° 0 mm 2 mps 688 mmHg 45%
    20:00 +14°C° 0 mm 2 mps 688 mmHg 49%
    21:00 +13°C° 0 mm 2 mps 688 mmHg 53%
    22:00 +12°C° 0 mm 2 mps 688 mmHg 58%
    23:00 +12°C° 0 mm 2 mps 688 mmHg 61%

    Tomorrow, 25 March, Monday

    Time Temperature Precipitation Wind Pressure Humidity
    00:00 +10°C° 0 mm 2 mps 688 mmHg 64%
    01:00 +10°C° 0 mm 3 mps 688 mmHg 67%
    02:00 +10°C° 0 mm 3 mps 688 mmHg 68%
    03:00 +9°C° 0 mm 3 mps 687 mmHg 70%
    04:00 +9°C° 0 mm 3 mps 687 mmHg 71%
    05:00 +9°C° 0 mm 3 mps 687 mmHg 71%
    06:00 +9°C° 0 mm 3 mps 687 mmHg 71%
    07:00 +9°C° 0 mm 3 mps 687 mmHg 71%
    08:00 +11°C° 0 mm 3 mps 687 mmHg 63%
    09:00 +12°C° 0 mm 4 mps 687 mmHg 56%
    10:00 +14°C° 0 mm 4 mps 688 mmHg 48%
    11:00 +15°C° 0 mm 4 mps 688 mmHg 44%
    12:00 +17°C° 0 mm 4 mps 687 mmHg 40%
    13:00 +17°C° 0 mm 5 mps 687 mmHg 36%
    14:00 +17°C° 0 mm 5 mps 687 mmHg 36%
    15:00 +17°C° 0 mm 5 mps 686 mmHg 36%
    16:00 +17°C° 0 mm 5 mps 685 mmHg 37%
    17:00 +17°C° 0.4 mm 4 mps 685 mmHg 46%
    18:00 +14°C° 0.4 mm 4 mps 685 mmHg 55%
    19:00 +13°C° 0.4 mm 4 mps 684 mmHg 65%
    20:00 +12°C° 0.5 mm 3 mps 685 mmHg 69%
    21:00 +13°C° 0.5 mm 1 mps 685 mmHg 72%
    22:00 +11°C° 0.5 mm 0 mps 685 mmHg 76%
    23:00 +11°C° 0 mm 0 mps 685 mmHg 76%

    Day after tomorrow, 26 March, Tuesday

    Time Temperature Precipitation Wind Pressure Humidity
    00:00 +11°C° 0 mm 1 mps 684 mmHg 76%
    01:00 +11°C° 0 mm 1 mps 684 mmHg 75%
    02:00 +11°C° 0 mm 1 mps 684 mmHg 77%
    03:00 +10°C° 0 mm 1 mps 683 mmHg 78%
    04:00 +10°C° 0 mm 1 mps 683 mmHg 79%
    05:00 +10°C° 0 mm 1 mps 683 mmHg 80%
    06:00 +10°C° 0 mm 1 mps 683 mmHg 81%
    07:00 +10°C° 0 mm 1 mps 683 mmHg 81%
    08:00 +11°C° 0 mm 1 mps 684 mmHg 73%
    09:00 +13°C° 0 mm 2 mps 684 mmHg 65%
    10:00 +14°C° 0 mm 2 mps 685 mmHg 57%
    11:00 +16°C° 0 mm 3 mps 685 mmHg 51%
    12:00 +17°C° 0 mm 4 mps 685 mmHg 45%
    13:00 +17°C° 0 mm 5 mps 685 mmHg 40%
    14:00 +17°C° 0.2 mm 5 mps 684 mmHg 44%
    15:00 +16°C° 0.2 mm 6 mps 684 mmHg 47%
    16:00 +15°C° 0.2 mm 6 mps 683 mmHg 51%
    17:00 +14°C° 0.2 mm 6 mps 683 mmHg 59%
    18:00 +11°C° 0.2 mm 6 mps 683 mmHg 68%
    19:00 +10°C° 0.2 mm 6 mps 683 mmHg 76%
    20:00 +9°C° 0 mm 6 mps 684 mmHg 76%
    21:00 +8°C° 0 mm 6 mps 684 mmHg 77%
    22:00 +7°C° 0 mm 6 mps 685 mmHg 77%
    23:00 +5°C° 0 mm 6 mps 684 mmHg 78%

    27 March, Wednesday

    Time Temperature Precipitation Wind Pressure Humidity
    00:00 +4°C° 0 mm 6 mps 684 mmHg 78%
    01:00 +3°C° 0 mm 6 mps 684 mmHg 78%
    02:00 +3°C° 0.2 mm 6 mps 684 mmHg 79%
    03:00 +3°C° 0.2 mm 6 mps 684 mmHg 80%
    04:00 +3°C° 0.2 mm 5 mps 684 mmHg 80%
    05:00 +3°C° 0.3 mm 5 mps 684 mmHg 81%
    06:00 +2°C° 0.3 mm 5 mps 684 mmHg 81%
    07:00 +2°C° 0.3 mm 5 mps 684 mmHg 82%
    08:00 +3°C° 0.2 mm 5 mps 685 mmHg 81%
    09:00 +3°C° 0.2 mm 5 mps 685 mmHg 81%
    10:00 +5°C° 0.2 mm 5 mps 685 mmHg 80%
    11:00 +6°C° 0.1 mm 5 mps 685 mmHg 76%
    12:00 +6°C° 0.1 mm 5 mps 685 mmHg 73%
    13:00 +7°C° 0.1 mm 5 mps 685 mmHg 69%
    14:00 +7°C° 0 mm 5 mps 685 mmHg 68%
    15:00 +8°C° 0 mm 4 mps 685 mmHg 68%
    16:00 +8°C° 0 mm 4 mps 685 mmHg 67%
    17:00 +8°C° 0 mm 5 mps 685 mmHg 70%
    18:00 +7°C° 0 mm 5 mps 685 mmHg 74%
    19:00 +7°C° 0 mm 5 mps 685 mmHg 78%
    20:00 +7°C° 0 mm 5 mps 686 mmHg 81%
    21:00 +6°C° 0 mm 4 mps 686 mmHg 84%
    22:00 +6°C° 0 mm 4 mps 686 mmHg 87%
    23:00 +5°C° 0 mm 4 mps 686 mmHg 88%

    28 March, Thursday

    Time Temperature Precipitation Wind Pressure Humidity
    00:00 +5°C° 0 mm 4 mps 686 mmHg 90%
    01:00 +4°C° 0 mm 4 mps 686 mmHg 91%
    02:00 +4°C° 0 mm 4 mps 686 mmHg 91%
    03:00 +4°C° 0 mm 4 mps 686 mmHg 90%
    04:00 +4°C° 0 mm 4 mps 685 mmHg 90%
    05:00 +4°C° 0 mm 4 mps 686 mmHg 89%
    06:00 +4°C° 0 mm 4 mps 686 mmHg 88%
    07:00 +4°C° 0 mm 4 mps 686 mmHg 87%
    08:00 +5°C° 0 mm 5 mps 687 mmHg 82%
    09:00 +5°C° 0 mm 5 mps 687 mmHg 78%
    10:00 +6°C° 0 mm 5 mps 687 mmHg 74%
    11:00 +7°C° 0 mm 5 mps 687 mmHg 69%
    12:00 +8°C° 0 mm 5 mps 687 mmHg 64%
    13:00 +9°C° 0 mm 5 mps 687 mmHg 59%
    14:00 +9°C° 0 mm 5 mps 687 mmHg 59%
    15:00 +10°C° 0 mm 5 mps 687 mmHg 58%
    16:00 +10°C° 0 mm 5 mps 687 mmHg 57%
    17:00 +9°C° 0 mm 5 mps 687 mmHg 62%
    18:00 +10°C° 0 mm 4 mps 687 mmHg 67%
    19:00 +8°C° 0 mm 4 mps 687 mmHg 71%
    20:00 +8°C° 0 mm 3 mps 688 mmHg 78%
    21:00 +7°C° 0 mm 2 mps 688 mmHg 84%
    22:00 +7°C° 0 mm 2 mps 689 mmHg 90%
    23:00 +7°C° 0 mm 1 mps 688 mmHg 91%

    29 March, Friday

    Time Temperature Precipitation Wind Pressure Humidity
    00:00 +7°C° 0 mm 1 mps 688 mmHg 92%
    01:00 +6°C° 0 mm 1 mps 688 mmHg 93%
    02:00 +6°C° 0 mm 1 mps 688 mmHg 92%
    03:00 +5°C° 0 mm 0 mps 688 mmHg 92%
    04:00 +4°C° 0 mm 0 mps 688 mmHg 91%
    05:00 +5°C° 0 mm 0 mps 688 mmHg 90%
    06:00 +5°C° 0 mm 0 mps 688 mmHg 89%
    07:00 +5°C° 0 mm 0 mps 689 mmHg 87%
    08:00 +8°C° 0 mm 1 mps 689 mmHg 79%
    09:00 +9°C° 0 mm 1 mps 690 mmHg 72%
    10:00 +10°C° 0 mm 2 mps 690 mmHg 64%
    11:00 +12°C° 0.1 mm 2 mps 690 mmHg 59%
    12:00 +13°C° 0.1 mm 2 mps 690 mmHg 55%
    13:00 +12°C° 0.1 mm 3 mps 690 mmHg 51%
    14:00 +12°C° 0.2 mm 3 mps 689 mmHg 51%
    15:00 +13°C° 0.2 mm 3 mps 689 mmHg 51%
    16:00 +13°C° 0.2 mm 3 mps 689 mmHg 51%
    17:00 +12°C° 0.2 mm 3 mps 689 mmHg 56%
    18:00 +11°C° 0.2 mm 4 mps 689 mmHg 60%
    19:00 +10°C° 0.2 mm 4 mps 689 mmHg 64%
    20:00 +10°C° 0 mm 3 mps 689 mmHg 71%
    21:00 +9°C° 0 mm 3 mps 689 mmHg 77%
    22:00 +8°C° 0 mm 2 mps 689 mmHg 84%
    23:00 +8°C° 0 mm 2 mps 689 mmHg 84%
    Show more